Location: Passau
(48.5830°N, 13.4830°E)
Time: 09:52:15
(UTC+01:00)

NOAA 19 - Pass Details

Date: 30 November 2021
Orbit: 841 x 860 km, 99.2° (Epoch: 26 January)

Event Time Altitude Azimuth Distance (km) Brightness Sun altitude
Rises 18:39:53 0° 165° (SSE) 3,383 8.3 -23.4°
Reaches altitude 10° 18:42:14 10° 166° (SSE) 2,452 7.5 -23.8°
Maximum altitude 18:47:41 83° 255° (WSW) 854 5.2 -24.7°
Drops below altitude 10° 18:53:11 10° 343° (NNW) 2,476 7.7 -25.6°
Sets 18:55:34 0° 345° (NNW) 3,417 8.5 -26.0°
